Location: Six Mile Lake
(44.9000°N, 79.7170°W)
Time: 03:05:27
(UTC-04:00)

LO-87 - Pass Details

Date: 09 July 2022
Orbit: 450 x 466 km, 97.4° (Epoch: 14 August)

Event Time Altitude Azimuth Distance (km) Brightness Sun altitude
Exits shadow 01:03:51 56° 303° (WNW) 559 ? -22.6°
Drops below altitude 10° 01:06:52 10° 342° (NNW) 1,633 ? -22.6°
Sets 01:08:57 0° 345° (NNW) 2,517 ? -22.7°
